| time (UTC) | temp C | wind direction | speed KPH | gust KPH | rain 1hr cm | rain 24hr cm | rain mn cm | humidity % | barometer mb |
| 20260906164459 | 32 | 198 | 11.3 | 12.9 | 0.00 | 0.00 | 0.00 | 62 | 1016.9 |
| 20260906163956 | 32 | 0 | 1.6 | 1.6 | 0.00 | 0.00 | 0.00 | 64 | 1016.9 |
| 20260906163451 | 32 | 119 | 9.7 | 12.9 | 0.00 | 0.00 | 0.00 | 63 | 1016.8 |
| 20260906162950 | 32 | 157 | 3.2 | 4.8 | 0.00 | 0.00 | 0.00 | 64 | 1016.9 |
| 20260906162448 | 31 | 290 | 3.2 | 4.8 | 0.00 | 0.00 | 0.00 | 65 | 1017.1 |
| 20260906161944 | 31 | 106 | 6.4 | 6.4 | 0.00 | 0.00 | 0.00 | 65 | 1017.0 |
| 20260906161444 | 31 | 87 | 3.2 | 3.2 | 0.00 | 0.00 | 0.00 | 67 | 1016.8 |
| 20260906160943 | 30 | 287 | 0.0 | 1.6 | 0.00 | 0.00 | 0.00 | 68 | 1016.9 |
| 20260906160442 | 30 | 84 | 6.4 | 9.7 | 0.00 | 0.00 | 0.00 | 68 | 1017.0 |
| 20260906155941 | 31 | 174 | 8.0 | 9.7 | 0.00 | 0.00 | 0.00 | 67 | 1016.9 |
| 20260906155439 | 32 | 8 | 1.6 | 3.2 | 0.00 | 0.00 | 0.00 | 63 | 1016.8 |
| 20260906154936 | 31 | 309 | 1.6 | 3.2 | 0.00 | 0.00 | 0.00 | 68 | 1016.9 |
| 20260906154431 | 31 | 128 | 3.2 | 6.4 | 0.00 | 0.00 | 0.00 | 66 | 1016.9 |
| 20260906153929 | 30 | 147 | 4.8 | 6.4 | 0.00 | 0.00 | 0.00 | 70 | 1017.0 |
| 20260906153428 | 30 | 122 | 6.4 | 9.7 | 0.00 | 0.00 | 0.00 | 69 | 1017.1 |
| 20260906152924 | 30 | 108 | 8.0 | 11.3 | 0.00 | 0.00 | 0.00 | 71 | 1016.9 |
| 20260906152424 | 30 | 150 | 6.4 | 6.4 | 0.00 | 0.00 | 0.00 | 71 | 1016.8 |
| 20260906151923 | 29 | 165 | 8.0 | 9.7 | 0.00 | 0.00 | 0.00 | 73 | 1016.9 |
| 20260906151419 | 29 | 105 | 6.4 | 12.9 | 0.00 | 0.00 | 0.00 | 73 | 1017.0 |
| 20260906150914 | 29 | 173 | 6.4 | 6.4 | 0.00 | 0.00 | 0.00 | 75 | 1016.8 |
| 20260906150409 | 29 | 57 | 4.8 | 4.8 | 0.00 | 0.00 | 0.00 | 74 | 1017.0 |
| 20260906145909 | 28 | 38 | 9.7 | 11.3 | 0.00 | 0.00 | 0.00 | 75 | 1016.9 |
| 20260906145407 | 28 | 61 | 4.8 | 9.7 | 0.00 | 0.00 | 0.00 | 76 | 1016.9 |
| 20260906144902 | 28 | 176 | 1.6 | 3.2 | 0.00 | 0.00 | 0.00 | 76 | 1017.0 |
| 20260906144357 | 28 | 50 | 1.6 | 3.2 | 0.00 | 0.00 | 0.00 | 77 | 1016.9 |
| 20260906143852 | 28 | 166 | 6.4 | 9.7 | 0.00 | 0.00 | 0.00 | 77 | 1017.0 |
| 20260906143348 | 27 | 335 | 3.2 | 3.2 | 0.00 | 0.00 | 0.00 | 79 | 1016.9 |
| 20260906142844 | 27 | 246 | 8.0 | 9.7 | 0.00 | 0.00 | 0.00 | 80 | 1016.6 |
| 20260906142338 | 27 | 119 | 6.4 | 6.4 | 0.00 | 0.00 | 0.00 | 79 | 1016.9 |
| 20260906141838 | 27 | 123 | 4.8 | 4.8 | 0.00 | 0.00 | 0.00 | 80 | 1016.9 |
| 20260906141333 | 27 | 59 | 6.4 | 9.7 | 0.00 | 0.00 | 0.00 | 79 | 1016.9 |
| 20260906140832 | 27 | 202 | 3.2 | 4.8 | 0.00 | 0.00 | 0.00 | 82 | 1016.7 |
| 20260906140327 | 27 | 121 | 6.4 | 9.7 | 0.00 | 0.00 | 0.00 | 82 | 1016.7 |
| 20260906135824 | 27 | 160 | 12.9 | 16.1 | 0.00 | 0.00 | 0.00 | 81 | 1017.0 |
| 20260906135320 | 26 | 121 | 8.0 | 11.3 | 0.00 | 0.00 | 0.00 | 83 | 1016.7 |
| 20260906134815 | 26 | 179 | 6.4 | 6.4 | 0.00 | 0.00 | 0.00 | 84 | 1017.1 |
| 20260906134310 | 26 | 73 | 3.2 | 4.8 | 0.00 | 0.00 | 0.00 | 85 | 1016.9 |
| 20260906133806 | 26 | 327 | 1.6 | 3.2 | 0.00 | 0.00 | 0.00 | 85 | 1017.0 |
| 20260906133301 | 26 | 314 | 4.8 | 6.4 | 0.00 | 0.00 | 0.00 | 86 | 1017.1 |
| 20260906132756 | 26 | 190 | 4.8 | 6.4 | 0.00 | 0.00 | 0.00 | 86 | 1016.9 |
| 20260906132252 | 26 | 337 | 3.2 | 4.8 | 0.00 | 0.00 | 0.00 | 87 | 1016.8 |
| 20260906131748 | 25 | 67 | 3.2 | 4.8 | 0.00 | 0.00 | 0.00 | 88 | 1016.9 |
| 20260906131247 | 25 | 200 | 4.8 | 6.4 | 0.00 | 0.00 | 0.00 | 89 | 1016.5 |
| 20260906130743 | 25 | 133 | 6.4 | 6.4 | 0.00 | 0.00 | 0.00 | 90 | 1016.5 |
| 20260906130238 | 25 | 300 | 3.2 | 3.2 | 0.00 | 0.00 | 0.00 | 91 | 1016.5 |
| 20260906125736 | 25 | 343 | 3.2 | 3.2 | 0.00 | 0.00 | 0.00 | 91 | 1016.4 |
| 20260906125235 | 25 | 301 | 0.0 | 0.0 | 0.00 | 0.00 | 0.00 | 92 | 1016.5 |
| 20260906124730 | 25 | 101 | 6.4 | 6.4 | 0.00 | 0.00 | 0.00 | 92 | 1016.6 |
| 20260906124226 | 25 | 65 | 3.2 | 4.8 | 0.00 | 0.00 | 0.00 | 92 | 1016.5 |
| 20260906123724 | 25 | 2 | 0.0 | 1.6 | 0.00 | 0.00 | 0.00 | 93 | 1016.6 |
| 20260906123220 | 25 | 340 | 1.6 | 3.2 | 0.00 | 0.00 | 0.00 | 93 | 1016.5 |
| 20260906122719 | 24 | 296 | 0.0 | 1.6 | 0.00 | 0.00 | 0.00 | 93 | 1016.3 |
| 20260906122214 | 24 | 243 | 1.6 | 3.2 | 0.00 | 0.00 | 0.00 | 93 | 1016.2 |
| 20260906121711 | 24 | 133 | 1.6 | 1.6 | 0.00 | 0.00 | 0.00 | 93 | 1016.2 |
| 20260906121207 | 24 | 357 | 1.6 | 1.6 | 0.00 | 0.00 | 0.00 | 93 | 1016.0 |
| 20260906120702 | 24 | 341 | 0.0 | 0.0 | 0.00 | 0.00 | 0.00 | 93 | 1016.0 |
| 20260906120200 | 24 | 271 | 0.0 | 0.0 | 0.00 | 0.00 | 0.00 | 93 | 1015.8 |
| 20260906115700 | 24 | 116 | 1.6 | 3.2 | 0.00 | 0.00 | 0.00 | 93 | 1015.9 |
| 20260906115155 | 24 | 13 | 0.0 | 0.0 | 0.00 | 0.00 | 0.00 | 93 | 1015.7 |
| 20260906114654 | 24 | 298 | 0.0 | 0.0 | 0.00 | 0.00 | 0.00 | 93 | 1015.9 |
| 20260906114150 | 24 | 314 | 0.0 | 0.0 | 0.00 | 0.00 | 0.00 | 93 | 1015.7 |
| 20260906113649 | 24 | 356 | 0.0 | 0.0 | 0.00 | 0.00 | 0.00 | 93 | 1015.5 |
| 20260906113149 | 25 | 2 | 1.6 | 3.2 | 0.00 | 0.00 | 0.00 | 93 | 1015.8 |
| 20260906112649 | 25 | 318 | 0.0 | 0.0 | 0.00 | 0.00 | 0.00 | 93 | 1015.7 |
| 20260906112146 | 25 | 281 | 0.0 | 1.6 | 0.00 | 0.00 | 0.00 | 92 | 1015.6 |
| 20260906111645 | 25 | 80 | 0.0 | 0.0 | 0.00 | 0.00 | 0.00 | 92 | 1015.6 |
| 20260906111140 | 25 | 49 | 0.0 | 0.0 | 0.00 | 0.00 | 0.00 | 92 | 1015.5 |
| 20260906110635 | 25 | 47 | 0.0 | 1.6 | 0.00 | 0.00 | 0.00 | 92 | 1015.6 |
| 20260906110130 | 25 | 321 | 0.0 | 0.0 | 0.00 | 0.00 | 0.00 | 92 | 1015.6 |
| 20260906105624 | 25 | 128 | 0.0 | 1.6 | 0.00 | 0.00 | 0.00 | 92 | 1015.4 |
| 20260906105121 | 25 | 322 | 0.0 | 0.0 | 0.00 | 0.00 | 0.00 | 91 | 1015.5 |
| 20260906104620 | 25 | 329 | 0.0 | 0.0 | 0.00 | 0.00 | 0.00 | 92 | 1015.5 |
| 20260906104119 | 25 | 319 | 0.0 | 0.0 | 0.00 | 0.00 | 0.00 | 91 | 1015.4 |
| 20260906103618 | 25 | 301 | 0.0 | 0.0 | 0.00 | 0.00 | 0.00 | 91 | 1015.4 |
| 20260906103114 | 25 | 3 | 0.0 | 0.0 | 0.00 | 0.00 | 0.00 | 91 | 1015.5 |
| 20260906102614 | 25 | 322 | 0.0 | 0.0 | 0.00 | 0.00 | 0.00 | 91 | 1015.6 |
| 20260906102109 | 25 | 318 | 0.0 | 0.0 | 0.00 | 0.00 | 0.00 | 90 | 1015.5 |
| 20260906101608 | 25 | 336 | 0.0 | 0.0 | 0.00 | 0.00 | 0.00 | 90 | 1015.5 |
| 20260906101108 | 25 | 326 | 0.0 | 0.0 | 0.00 | 0.00 | 0.00 | 90 | 1015.4 |
| 20260906100605 | 25 | 323 | 0.0 | 0.0 | 0.00 | 0.00 | 0.00 | 89 | 1015.4 |
| 20260906100104 | 25 | 332 | 0.0 | 0.0 | 0.00 | 0.00 | 0.00 | 89 | 1015.4 |
| 20260906095604 | 25 | 318 | 0.0 | 0.0 | 0.00 | 0.00 | 0.00 | 88 | 1015.2 |
| 20260906095100 | 25 | 312 | 0.0 | 0.0 | 0.00 | 0.00 | 0.00 | 88 | 1015.2 |
| 20260906094558 | 25 | 324 | 0.0 | 0.0 | 0.00 | 0.00 | 0.00 | 87 | 1015.2 |
| 20260906094054 | 25 | 316 | 0.0 | 0.0 | 0.00 | 0.00 | 0.00 | 87 | 1015.3 |
| 20260906093550 | 25 | 351 | 0.0 | 0.0 | 0.00 | 0.00 | 0.00 | 88 | 1015.2 |
| 20260906093045 | 25 | 317 | 0.0 | 0.0 | 0.00 | 0.00 | 0.00 | 88 | 1015.2 |
| 20260906092540 | 25 | 321 | 0.0 | 0.0 | 0.00 | 0.00 | 0.00 | 87 | 1015.2 |
| 20260906092035 | 25 | 75 | 1.6 | 3.2 | 0.00 | 0.00 | 0.00 | 87 | 1015.1 |
| 20260906091531 | 25 | 319 | 0.0 | 0.0 | 0.00 | 0.00 | 0.00 | 86 | 1015.0 |
| 20260906091028 | 25 | 318 | 0.0 | 0.0 | 0.00 | 0.00 | 0.00 | 86 | 1014.9 |
| 20260906090528 | 25 | 25 | 1.6 | 1.6 | 0.00 | 0.00 | 0.00 | 86 | 1014.8 |
| 20260906090023 | 25 | 323 | 0.0 | 0.0 | 0.00 | 0.00 | 0.00 | 85 | 1014.9 |
| 20260906085521 | 25 | 12 | 0.0 | 1.6 | 0.00 | 0.00 | 0.00 | 85 | 1015.0 |
| 20260906085022 | 25 | 315 | 0.0 | 0.0 | 0.00 | 0.00 | 0.00 | 85 | 1014.9 |
| 20260906084522 | 25 | 320 | 0.0 | 0.0 | 0.00 | 0.00 | 0.00 | 85 | 1014.9 |
| 20260906084020 | 26 | 45 | 3.2 | 3.2 | 0.00 | 0.00 | 0.00 | 84 | 1014.7 |
| 20260906083516 | 26 | 326 | 1.6 | 3.2 | 0.00 | 0.00 | 0.00 | 84 | 1014.8 |
| 20260906083016 | 26 | 327 | 0.0 | 0.0 | 0.00 | 0.00 | 0.00 | 83 | 1014.7 |
| 20260906082511 | 26 | 319 | 0.0 | 0.0 | 0.00 | 0.00 | 0.00 | 83 | 1014.6 |
| 20260906082007 | 26 | 340 | 1.6 | 3.2 | 0.00 | 0.00 | 0.00 | 83 | 1014.5 |
| 20260906081502 | 26 | 312 | 0.0 | 0.0 | 0.00 | 0.00 | 0.00 | 83 | 1014.6 |
| 20260906080958 | 26 | 333 | 0.0 | 0.0 | 0.00 | 0.00 | 0.00 | 82 | 1014.6 |
| 20260906080454 | 26 | 311 | 0.0 | 0.0 | 0.00 | 0.00 | 0.00 | 82 | 1014.5 |
| 20260906075949 | 26 | 324 | 1.6 | 1.6 | 0.00 | 0.00 | 0.00 | 82 | 1014.5 |
| 20260906075444 | 26 | 306 | 0.0 | 0.0 | 0.00 | 0.00 | 0.00 | 82 | 1014.4 |
| 20260906074939 | 26 | 313 | 0.0 | 0.0 | 0.00 | 0.00 | 0.00 | 81 | 1014.3 |
| 20260906074439 | 26 | 307 | 0.0 | 0.0 | 0.00 | 0.00 | 0.00 | 81 | 1014.5 |
| 20260906073937 | 26 | 351 | 3.2 | 3.2 | 0.00 | 0.00 | 0.00 | 81 | 1014.3 |
| 20260906073432 | 26 | 318 | 0.0 | 0.0 | 0.00 | 0.00 | 0.00 | 80 | 1014.6 |
| 20260906072928 | 26 | 310 | 0.0 | 0.0 | 0.00 | 0.00 | 0.00 | 80 | 1014.3 |
| 20260906072424 | 26 | 324 | 0.0 | 0.0 | 0.00 | 0.00 | 0.00 | 80 | 1014.4 |
| 20260906071920 | 26 | 310 | 0.0 | 0.0 | 0.00 | 0.00 | 0.00 | 80 | 1014.5 |
| 20260906071415 | 26 | 319 | 0.0 | 0.0 | 0.00 | 0.00 | 0.00 | 80 | 1014.6 |
| 20260906070911 | 26 | 310 | 0.0 | 0.0 | 0.00 | 0.00 | 0.00 | 79 | 1014.6 |
| 20260906070407 | 26 | 333 | 0.0 | 0.0 | 0.00 | 0.00 | 0.00 | 79 | 1014.8 |
| 20260906065902 | 26 | 311 | 0.0 | 0.0 | 0.00 | 0.00 | 0.00 | 78 | 1014.9 |
| 20260906065356 | 26 | 318 | 0.0 | 0.0 | 0.00 | 0.00 | 0.00 | 78 | 1014.9 |
| 20260906064852 | 26 | 315 | 0.0 | 0.0 | 0.00 | 0.00 | 0.00 | 77 | 1014.8 |
| 20260906064349 | 26 | 329 | 0.0 | 0.0 | 0.00 | 0.00 | 0.00 | 77 | 1014.9 |
| 20260906063848 | 26 | 335 | 0.0 | 0.0 | 0.00 | 0.00 | 0.00 | 77 | 1015.0 |
| 20260906063344 | 26 | 322 | 0.0 | 0.0 | 0.00 | 0.00 | 0.00 | 76 | 1015.1 |
| 20260906062838 | 26 | 329 | 1.6 | 1.6 | 0.00 | 0.00 | 0.00 | 76 | 1015.0 |
| 20260906062338 | 26 | 313 | 0.0 | 0.0 | 0.00 | 0.00 | 0.00 | 76 | 1014.9 |
| 20260906061833 | 26 | 315 | 0.0 | 0.0 | 0.00 | 0.00 | 0.00 | 76 | 1014.9 |
| 20260906061330 | 26 | 340 | 0.0 | 0.0 | 0.00 | 0.00 | 0.00 | 76 | 1015.0 |
| 20260906060824 | 26 | 312 | 0.0 | 0.0 | 0.00 | 0.00 | 0.00 | 74 | 1015.0 |
| 20260906060322 | 26 | 316 | 0.0 | 0.0 | 0.00 | 0.00 | 0.00 | 74 | 1015.0 |
| 20260906055818 | 26 | 311 | 0.0 | 0.0 | 0.00 | 0.00 | 0.00 | 74 | 1015.0 |
| 20260906055313 | 26 | 314 | 0.0 | 0.0 | 0.00 | 0.00 | 0.00 | 73 | 1015.2 |
| 20260906054808 | 27 | 311 | 0.0 | 0.0 | 0.00 | 0.00 | 0.00 | 72 | 1015.0 |
| 20260906054303 | 27 | 314 | 0.0 | 0.0 | 0.00 | 0.00 | 0.00 | 71 | 1015.2 |
| 20260906053800 | 27 | 312 | 0.0 | 0.0 | 0.00 | 0.00 | 0.00 | 72 | 1014.9 |
| 20260906053255 | 27 | 306 | 0.0 | 0.0 | 0.00 | 0.00 | 0.00 | 71 | 1015.1 |
| 20260906052750 | 27 | 312 | 0.0 | 0.0 | 0.00 | 0.00 | 0.00 | 71 | 1015.2 |
| 20260906052246 | 27 | 331 | 0.0 | 0.0 | 0.00 | 0.00 | 0.00 | 71 | 1015.0 |
| 20260906051743 | 27 | 313 | 0.0 | 0.0 | 0.00 | 0.00 | 0.00 | 70 | 1015.0 |
| 20260906051243 | 27 | 311 | 0.0 | 0.0 | 0.00 | 0.00 | 0.00 | 70 | 1015.1 |
| 20260906050738 | 27 | 322 | 0.0 | 0.0 | 0.00 | 0.00 | 0.00 | 70 | 1014.9 |
| 20260906050233 | 27 | 313 | 0.0 | 1.6 | 0.00 | 0.00 | 0.00 | 69 | 1015.0 |
| 20260906045732 | 27 | 321 | 0.0 | 1.6 | 0.00 | 0.00 | 0.00 | 69 | 1014.9 |
| 20260906045227 | 27 | 315 | 0.0 | 0.0 | 0.00 | 0.00 | 0.00 | 68 | 1014.8 |
| 20260906044722 | 27 | 315 | 0.0 | 0.0 | 0.00 | 0.00 | 0.00 | 68 | 1014.9 |
| 20260906044218 | 27 | 317 | 0.0 | 0.0 | 0.00 | 0.00 | 0.00 | 68 | 1014.8 |
| 20260906043714 | 27 | 316 | 0.0 | 0.0 | 0.00 | 0.00 | 0.00 | 67 | 1014.7 |
| 20260906043210 | 27 | 315 | 0.0 | 0.0 | 0.00 | 0.00 | 0.00 | 67 | 1014.8 |
| 20260906042709 | 28 | 311 | 0.0 | 0.0 | 0.00 | 0.00 | 0.00 | 64 | 1014.6 |
| 20260906042203 | 28 | 320 | 0.0 | 0.0 | 0.00 | 0.00 | 0.00 | 65 | 1014.7 |
| 20260906041659 | 28 | 315 | 0.0 | 0.0 | 0.00 | 0.00 | 0.00 | 66 | 1014.6 |
| 20260906041154 | 28 | 316 | 0.0 | 0.0 | 0.00 | 0.00 | 0.00 | 65 | 1014.7 |
| 20260906040649 | 28 | 319 | 0.0 | 1.6 | 0.00 | 0.00 | 0.00 | 65 | 1014.5 |
| 20260906040144 | 28 | 319 | 0.0 | 0.0 | 0.00 | 0.00 | 0.00 | 64 | 1014.5 |
| 20260906035644 | 28 | 327 | 0.0 | 0.0 | 0.00 | 0.00 | 0.00 | 64 | 1014.6 |
| 20260906035140 | 28 | 314 | 0.0 | 0.0 | 0.00 | 0.00 | 0.00 | 64 | 1014.5 |
| 20260906034636 | 28 | 315 | 0.0 | 0.0 | 0.00 | 0.00 | 0.00 | 64 | 1014.4 |
| 20260906034130 | 28 | 323 | 0.0 | 0.0 | 0.00 | 0.00 | 0.00 | 64 | 1014.4 |
| 20260906033626 | 28 | 316 | 0.0 | 0.0 | 0.00 | 0.00 | 0.00 | 63 | 1014.3 |
| 20260906033126 | 28 | 316 | 0.0 | 0.0 | 0.00 | 0.00 | 0.00 | 62 | 1014.3 |
| 20260906032623 | 28 | 316 | 0.0 | 0.0 | 0.00 | 0.00 | 0.00 | 63 | 1014.1 |
| 20260906032122 | 28 | 316 | 0.0 | 0.0 | 0.00 | 0.00 | 0.00 | 61 | 1014.4 |
| 20260906031618 | 28 | 316 | 0.0 | 0.0 | 0.00 | 0.00 | 0.00 | 62 | 1014.1 |
| 20260906031113 | 29 | 315 | 0.0 | 0.0 | 0.00 | 0.00 | 0.00 | 62 | 1014.0 |
| 20260906030612 | 29 | 315 | 0.0 | 0.0 | 0.00 | 0.00 | 0.00 | 61 | 1013.9 |
| 20260906030108 | 29 | 315 | 0.0 | 0.0 | 0.00 | 0.00 | 0.00 | 61 | 1013.9 |
| 20260906025608 | 30 | 316 | 0.0 | 0.0 | 0.00 | 0.00 | 0.00 | 60 | 1013.9 |
| 20260906025106 | 30 | 313 | 0.0 | 0.0 | 0.00 | 0.00 | 0.00 | 59 | 1013.8 |
| 20260906024601 | 30 | 312 | 0.0 | 0.0 | 0.00 | 0.00 | 0.00 | 59 | 1013.9 |
| 20260906024101 | 30 | 316 | 0.0 | 0.0 | 0.00 | 0.00 | 0.00 | 58 | 1013.8 |
| 20260906023557 | 30 | 314 | 0.0 | 0.0 | 0.00 | 0.00 | 0.00 | 58 | 1013.9 |
| 20260906023051 | 30 | 315 | 0.0 | 0.0 | 0.00 | 0.00 | 0.00 | 58 | 1013.9 |
| 20260906022547 | 30 | 317 | 0.0 | 0.0 | 0.00 | 0.00 | 0.00 | 59 | 1013.6 |
| 20260906022042 | 30 | 313 | 0.0 | 0.0 | 0.00 | 0.00 | 0.00 | 59 | 1013.4 |
| 20260906021538 | 30 | 313 | 0.0 | 0.0 | 0.00 | 0.00 | 0.00 | 58 | 1013.5 |
| 20260906021037 | 30 | 338 | 0.0 | 0.0 | 0.00 | 0.00 | 0.00 | 59 | 1013.2 |
| 20260906020537 | 30 | 329 | 0.0 | 0.0 | 0.00 | 0.00 | 0.00 | 58 | 1013.2 |
| 20260906020036 | 30 | 317 | 0.0 | 0.0 | 0.00 | 0.00 | 0.00 | 58 | 1013.1 |
| 20260906015536 | 30 | 307 | 0.0 | 0.0 | 0.00 | 0.00 | 0.00 | 58 | 1013.2 |
| 20260906015035 | 31 | 310 | 0.0 | 0.0 | 0.00 | 0.00 | 0.00 | 57 | 1012.9 |
| 20260906014530 | 31 | 310 | 0.0 | 0.0 | 0.00 | 0.00 | 0.00 | 57 | 1012.9 |
| 20260906014026 | 31 | 338 | 0.0 | 0.0 | 0.00 | 0.00 | 0.00 | 57 | 1013.0 |
| 20260906013521 | 31 | 312 | 0.0 | 0.0 | 0.00 | 0.00 | 0.00 | 56 | 1012.8 |
| 20260906013017 | 31 | 312 | 0.0 | 0.0 | 0.00 | 0.00 | 0.00 | 56 | 1012.9 |
| 20260906012512 | 31 | 317 | 0.0 | 0.0 | 0.00 | 0.00 | 0.00 | 56 | 1013.0 |
| 20260906012011 | 31 | 317 | 0.0 | 0.0 | 0.00 | 0.00 | 0.00 | 56 | 1012.9 |
| 20260906011508 | 32 | 308 | 0.0 | 0.0 | 0.00 | 0.00 | 0.00 | 55 | 1012.8 |
| 20260906011008 | 32 | 319 | 0.0 | 0.0 | 0.00 | 0.00 | 0.00 | 54 | 1012.8 |
| 20260906010503 | 32 | 338 | 0.0 | 1.6 | 0.00 | 0.00 | 0.00 | 54 | 1012.8 |
| 20260906005959 | 32 | 311 | 0.0 | 0.0 | 0.00 | 0.00 | 0.00 | 54 | 1012.7 |
| 20260906005458 | 32 | 308 | 0.0 | 0.0 | 0.00 | 0.00 | 0.00 | 53 | 1013.0 |
| 20260906004957 | 32 | 328 | 0.0 | 0.0 | 0.00 | 0.00 | 0.00 | 53 | 1012.7 |
| 20260906004457 | 33 | 313 | 0.0 | 0.0 | 0.00 | 0.00 | 0.00 | 52 | 1012.8 |
| 20260906003952 | 33 | 308 | 0.0 | 0.0 | 0.00 | 0.00 | 0.00 | 52 | 1012.7 |
| 20260906003447 | 33 | 313 | 0.0 | 0.0 | 0.00 | 0.00 | 0.00 | 51 | 1012.7 |
| 20260906002942 | 33 | 308 | 0.0 | 0.0 | 0.00 | 0.00 | 0.00 | 50 | 1012.4 |
| 20260906002442 | 34 | 325 | 0.0 | 0.0 | 0.00 | 0.00 | 0.00 | 49 | 1012.8 |
| 20260906001938 | 35 | 317 | 0.0 | 0.0 | 0.00 | 0.00 | 0.00 | 48 | 1012.8 |
| 20260906001434 | 35 | 304 | 0.0 | 0.0 | 0.00 | 0.00 | 0.00 | 48 | 1012.6 |
| 20260906000928 | 35 | 314 | 0.0 | 0.0 | 0.00 | 0.00 | 0.00 | 48 | 1012.7 |
| 20260906000425 | 35 | 313 | 0.0 | 0.0 | 0.00 | 0.00 | 0.00 | 47 | 1012.6 |
| 20260905235919 | 35 | 344 | 3.2 | 4.8 | 0.00 | 0.00 | 0.00 | 46 | 1012.8 |
| 20260905235418 | 35 | 307 | 0.0 | 1.6 | 0.00 | 0.00 | 0.00 | 46 | 1012.7 |
| 20260905234913 | 36 | 260 | 1.6 | 4.8 | 0.00 | 0.00 | 0.00 | 45 | 1012.7 |
| 20260905234409 | 37 | 317 | 1.6 | 1.6 | 0.00 | 0.00 | 0.00 | 43 | 1012.6 |
| 20260905233903 | 36 | 325 | 0.0 | 1.6 | 0.00 | 0.00 | 0.00 | 38 | 1012.5 |
| 20260905233358 | 36 | 326 | 0.0 | 0.0 | 0.00 | 0.00 | 0.00 | 38 | 1012.7 |
| 20260905232858 | 37 | 354 | 1.6 | 3.2 | 0.00 | 0.00 | 0.00 | 37 | 1012.5 |
| 20260905232354 | 37 | 306 | 0.0 | 0.0 | 0.00 | 0.00 | 0.00 | 37 | 1012.4 |
| 20260905231849 | 37 | 123 | 4.8 | 4.8 | 0.00 | 0.00 | 0.00 | 37 | 1012.5 |
| 20260905231350 | 37 | 287 | 3.2 | 3.2 | 0.00 | 0.00 | 0.00 | 36 | 1012.5 |
| 20260905230847 | 37 | 296 | 1.6 | 1.6 | 0.00 | 0.00 | 0.00 | 36 | 1012.3 |
| 20260905230344 | 38 | 283 | 3.2 | 3.2 | 0.00 | 0.00 | 0.00 | 35 | 1012.4 |
| 20260905225843 | 38 | 286 | 3.2 | 3.2 | 0.00 | 0.00 | 0.00 | 35 | 1012.3 |
| 20260905225338 | 38 | 282 | 0.0 | 1.6 | 0.00 | 0.00 | 0.00 | 35 | 1012.3 |
| 20260905224833 | 39 | 296 | 1.6 | 3.2 | 0.00 | 0.00 | 0.00 | 34 | 1012.1 |
| 20260905224329 | 40 | 305 | 0.0 | 1.6 | 0.00 | 0.00 | 0.00 | 34 | 1012.1 |
| 20260905223824 | 40 | 308 | 0.0 | 0.0 | 0.00 | 0.00 | 0.00 | 33 | 1012.1 |
| 20260905223322 | 40 | 300 | 1.6 | 1.6 | 0.00 | 0.00 | 0.00 | 33 | 1012.1 |
| 20260905222817 | 39 | 47 | 1.6 | 1.6 | 0.00 | 0.00 | 0.00 | 34 | 1012.2 |
| 20260905222315 | 38 | 309 | 1.6 | 3.2 | 0.00 | 0.00 | 0.00 | 35 | 1012.1 |
| 20260905221811 | 37 | 312 | 0.0 | 0.0 | 0.00 | 0.00 | 0.00 | 37 | 1012.1 |
| 20260905221308 | 37 | 156 | 3.2 | 3.2 | 0.00 | 0.00 | 0.00 | 36 | 1012.2 |
| 20260905220803 | 38 | 240 | 4.8 | 6.4 | 0.00 | 0.00 | 0.00 | 36 | 1012.2 |
| 20260905220300 | 38 | 239 | 1.6 | 4.8 | 0.00 | 0.00 | 0.00 | 36 | 1012.3 |
| 20260905215759 | 37 | 286 | 0.0 | 0.0 | 0.00 | 0.00 | 0.00 | 37 | 1012.2 |
| 20260905215255 | 38 | 276 | 1.6 | 3.2 | 0.00 | 0.00 | 0.00 | 35 | 1012.1 |
| 20260905214750 | 37 | 289 | 1.6 | 1.6 | 0.00 | 0.00 | 0.00 | 37 | 1012.3 |
| 20260905214246 | 38 | 259 | 6.4 | 6.4 | 0.00 | 0.00 | 0.00 | 36 | 1012.3 |
| 20260905213741 | 37 | 255 | 4.8 | 4.8 | 0.00 | 0.00 | 0.00 | 38 | 1012.5 |
| 20260905213237 | 38 | 275 | 4.8 | 6.4 | 0.00 | 0.00 | 0.00 | 36 | 1012.4 |
| 20260905212732 | 38 | 220 | 3.2 | 4.8 | 0.00 | 0.00 | 0.00 | 36 | 1012.4 |
| 20260905212231 | 40 | 192 | 3.2 | 3.2 | 0.00 | 0.00 | 0.00 | 34 | 1012.4 |
| 20260905211731 | 40 | 310 | 0.0 | 0.0 | 0.00 | 0.00 | 0.00 | 33 | 1012.6 |
| 20260905211226 | 38 | 280 | 3.2 | 4.8 | 0.00 | 0.00 | 0.00 | 35 | 1012.7 |
| 20260905210723 | 40 | 199 | 4.8 | 4.8 | 0.00 | 0.00 | 0.00 | 34 | 1012.8 |
| 20260905210223 | 42 | 300 | 0.0 | 0.0 | 0.00 | 0.00 | 0.00 | 30 | 1012.9 |
| 20260905205721 | 42 | 327 | 0.0 | 0.0 | 0.00 | 0.00 | 0.00 | 31 | 1013.2 |
| 20260905205217 | 43 | 359 | 3.2 | 3.2 | 0.00 | 0.00 | 0.00 | 29 | 1013.1 |
| 20260905204716 | 41 | 308 | 0.0 | 1.6 | 0.00 | 0.00 | 0.00 | 33 | 1013.2 |
| 20260905204212 | 41 | 303 | 1.6 | 1.6 | 0.00 | 0.00 | 0.00 | 31 | 1013.4 |
| 20260905203711 | 41 | 354 | 1.6 | 4.8 | 0.00 | 0.00 | 0.00 | 31 | 1013.4 |
| 20260905203208 | 41 | 316 | 0.0 | 0.0 | 0.00 | 0.00 | 0.00 | 32 | 1013.5 |
| 20260905202703 | 41 | 316 | 3.2 | 3.2 | 0.00 | 0.00 | 0.00 | 32 | 1013.3 |
| 20260905202158 | 41 | 311 | 0.0 | 0.0 | 0.00 | 0.00 | 0.00 | 33 | 1013.9 |
| 20260905201653 | 39 | 313 | 0.0 | 1.6 | 0.00 | 0.00 | 0.00 | 34 | 1013.6 |
| 20260905201153 | 38 | 329 | 1.6 | 1.6 | 0.00 | 0.00 | 0.00 | 36 | 1013.8 |
| 20260905200648 | 42 | 159 | 11.3 | 16.1 | 0.00 | 0.00 | 0.00 | 30 | 1013.6 |
| 20260905200144 | 42 | 311 | 0.0 | 0.0 | 0.00 | 0.00 | 0.00 | 30 | 1013.9 |
| 20260905195642 | 41 | 289 | 0.0 | 1.6 | 0.00 | 0.00 | 0.00 | 30 | 1013.8 |
| 20260905195137 | 39 | 314 | 6.4 | 9.7 | 0.00 | 0.00 | 0.00 | 34 | 1013.8 |
| 20260905194632 | 40 | 224 | 11.3 | 12.9 | 0.00 | 0.00 | 0.00 | 32 | 1013.8 |
| 20260905194131 | 39 | 258 | 8.0 | 9.7 | 0.00 | 0.00 | 0.00 | 33 | 1013.6 |
| 20260905193626 | 41 | 246 | 6.4 | 6.4 | 0.00 | 0.00 | 0.00 | 34 | 1013.8 |
| 20260905193121 | 44 | 294 | 1.6 | 1.6 | 0.00 | 0.00 | 0.00 | 27 | 1014.1 |
| 20260905192617 | 43 | 305 | 0.0 | 0.0 | 0.00 | 0.00 | 0.00 | 28 | 1014.0 |
| 20260905192113 | 42 | 314 | 1.6 | 1.6 | 0.00 | 0.00 | 0.00 | 30 | 1013.9 |
| 20260905191612 | 40 | 302 | 0.0 | 0.0 | 0.00 | 0.00 | 0.00 | 35 | 1014.1 |
| 20260905191110 | 40 | 171 | 9.7 | 11.3 | 0.00 | 0.00 | 0.00 | 34 | 1014.2 |
| 20260905190609 | 40 | 305 | 3.2 | 4.8 | 0.00 | 0.00 | 0.00 | 33 | 1014.3 |
| 20260905185602 | 39 | 303 | 0.0 | 1.6 | 0.00 | 0.00 | 0.00 | 35 | 1014.4 |
| 20260905185102 | 37 | 304 | 1.6 | 1.6 | 0.00 | 0.00 | 0.00 | 38 | 1014.5 |
| 20260905184556 | 38 | 271 | 6.4 | 6.4 | 0.00 | 0.00 | 0.00 | 37 | 1014.6 |
| 20260905184056 | 37 | 303 | 0.0 | 1.6 | 0.00 | 0.00 | 0.00 | 37 | 1014.6 |
| 20260905183555 | 37 | 252 | 3.2 | 3.2 | 0.00 | 0.00 | 0.00 | 39 | 1014.7 |
| 20260905183051 | 37 | 229 | 6.4 | 6.4 | 0.00 | 0.00 | 0.00 | 39 | 1014.8 |
| 20260905182550 | 37 | 262 | 3.2 | 6.4 | 0.00 | 0.00 | 0.00 | 39 | 1014.8 |
| 20260905182044 | 38 | 285 | 3.2 | 4.8 | 0.00 | 0.00 | 0.00 | 39 | 1014.6 |
| 20260905181539 | 38 | 300 | 1.6 | 1.6 | 0.00 | 0.00 | 0.00 | 38 | 1014.7 |
| 20260905181038 | 39 | 251 | 1.6 | 3.2 | 0.00 | 0.00 | 0.00 | 36 | 1014.9 |
| 20260905180533 | 41 | 284 | 6.4 | 9.7 | 0.00 | 0.00 | 0.00 | 33 | 1014.8 |
| 20260905180029 | 40 | 303 | 0.0 | 1.6 | 0.00 | 0.00 | 0.00 | 33 | 1014.9 |
| 20260905175528 | 40 | 306 | 0.0 | 0.0 | 0.00 | 0.00 | 0.00 | 36 | 1014.7 |
| 20260905175024 | 38 | 308 | 0.0 | 0.0 | 0.00 | 0.00 | 0.00 | 37 | 1014.9 |
| 20260905174519 | 38 | 286 | 4.8 | 6.4 | 0.00 | 0.00 | 0.00 | 37 | 1015.0 |
| 20260905174015 | 37 | 314 | 1.6 | 1.6 | 0.00 | 0.00 | 0.00 | 38 | 1014.9 |
| 20260905173511 | 37 | 236 | 4.8 | 4.8 | 0.00 | 0.00 | 0.00 | 37 | 1015.1 |
| 20260905173006 | 37 | 250 | 3.2 | 4.8 | 0.00 | 0.00 | 0.00 | 38 | 1015.3 |
| 20260905172504 | 38 | 251 | 4.8 | 4.8 | 0.00 | 0.00 | 0.00 | 36 | 1015.4 |
| 20260905172000 | 37 | 296 | 0.0 | 1.6 | 0.00 | 0.00 | 0.00 | 39 | 1015.4 |
| 20260905171456 | 37 | 308 | 3.2 | 3.2 | 0.00 | 0.00 | 0.00 | 38 | 1015.3 |
| 20260905170952 | 37 | 306 | 1.6 | 3.2 | 0.00 | 0.00 | 0.00 | 38 | 1015.4 |
| 20260905170449 | 39 | 279 | 3.2 | 3.2 | 0.00 | 0.00 | 0.00 | 37 | 1015.6 |
| 20260905165947 | 38 | 307 | 0.0 | 0.0 | 0.00 | 0.00 | 0.00 | 39 | 1015.4 |
| 20260905165442 | 37 | 299 | 3.2 | 6.4 | 0.00 | 0.00 | 0.00 | 38 | 1015.5 |
| 20260905164938 | 37 | 349 | 0.0 | 0.0 | 0.00 | 0.00 | 0.00 | 40 | 1015.6 |